This is the latest recevied weather packets stored in our database for station/object WA4TPR. If no packets are shown the sender has not sent any weather packets the latest 10 day(s).
| Time | Temp. | Humidity | Pressure | Rain* | Wind** | Luminosity | Snow |
|---|---|---|---|---|---|---|---|
| 1777573226 | 30.56° C | 56% | 1015.4 hPa | 0 mm | - | 659 W/m² | - |
| 1777572922 | 30.56° C | 56% | 1015.5 hPa | 0 mm | - | 856 W/m² | - |
| 1777572618 | 30.56° C | 57% | 1015.6 hPa | 0 mm | - | 861 W/m² | - |
| 1777572313 | 30° C | 56% | 1015.7 hPa | 0 mm | - | 251 W/m² | - |
| 1777572009 | 30° C | 57% | 1015.4 hPa | 0 mm | - | 953 W/m² | - |
| 1777571709 | 30.56° C | 56% | 1015.6 hPa | 0 mm | - | 572 W/m² | - |
| 1777571407 | 30° C | 55% | 1015.3 hPa | 0 mm | - | 436 W/m² | - |
| 1777571103 | 30° C | 56% | 1015.6 hPa | 0 mm | - | 896 W/m² | - |
| 1777570799 | 30° C | 56% | 1015.7 hPa | 0 mm | - | 598 W/m² | - |
| 1777570495 | 30° C | 57% | 1015.8 hPa | 0 mm | - | 370 W/m² | - |
| 1777570191 | 30° C | 57% | 1015.7 hPa | 0 mm | - | 385 W/m² | - |
| 1777569887 | 30° C | 58% | 1015.6 hPa | 0 mm | - | 530 W/m² | - |
| 1777569583 | 30° C | 57% | 1015.8 hPa | 0 mm | - | 790 W/m² | - |
| 1777569280 | 30° C | 57% | 1015.9 hPa | 0 mm | - | 427 W/m² | - |
| 1777568976 | 29.44° C | 58% | 1015.7 hPa | 0 mm | - | 885 W/m² | - |
| 1777568673 | 30° C | 57% | 1015.9 hPa | 0 mm | - | 698 W/m² | - |
| 1777568371 | 29.44° C | 59% | 1016.1 hPa | 0 mm | - | 689 W/m² | - |
| 1777568067 | 30° C | 58% | 1016.2 hPa | 0 mm | - | 590 W/m² | - |
| 1777567763 | 29.44° C | 61% | 1016.2 hPa | 0 mm | - | 675 W/m² | - |
| 1777567460 | 29.44° C | 61% | 1016.1 hPa | 0 mm | - | 750 W/m² | - |
| 1777567158 | 28.89° C | 62% | 1016.5 hPa | 0 mm | - | 759 W/m² | - |
| 1777566856 | 29.44° C | 61% | 1016.3 hPa | 0 mm | - | 722 W/m² | - |
| 1777566554 | 29.44° C | 61% | 1016.1 hPa | 0 mm | - | 828 W/m² | - |
| 1777566251 | 28.89° C | 62% | 1016.1 hPa | 0 mm | - | 729 W/m² | - |
| 1777565948 | 29.44° C | 65% | 1016.1 hPa | 0 mm | - | 457 W/m² | - |
* Rain latest hour (hover to see other rain measurements)
** Current wind speed in m/s (hover to see current wind gust speed)